{"data":{"norad_id":56297,"epoch":"2026-09-19T23:47:51.843264Z","epoch_age_seconds":152816,"freshness":"FRESH","line1":"1 56297U 23056M   26262.99157226 -.00000051  00000+0  76831-5 0  9990","line2":"2 56297  43.0040 191.7291 0001458 281.5882  78.4806 15.27572666189754","mean_motion":15.27572666,"eccentricity":0.0001458,"inclination_deg":43.004,"raan_deg":191.7291,"arg_perigee_deg":281.5882,"mean_anomaly_deg":78.4806,"bstar":7.6831e-6,"rev_number":18975,"period_min":94.267201295941,"perigee_km":482.07069262723,"apogee_km":484.07142089658,"semimajor_km":6861.2080567619,"source":"CELESTRAK","updated_at":"2026-09-21T09:00:33.393293Z"}}